Weather History for Chariton, IA

Change the Weather History Date:

Wednesday, October 23, 2013

  Actual Average Record
Temperature  
Mean Temperature 36 °F -  
Max Temperature 42 °F 62 °F 84 °F (1963)
Min Temperature 30 °F 40 °F 18 °F (1981)
Degree Days  
Heating Degree Days 29    
Moisture  
Dew Point 32 °F    
Average Humidity 84    
Maximum Humidity 100    
Minimum Humidity 53    
Precipitation  
Precipitation 0.02 in - - ()
Sea Level Pressure  
Sea Level Pressure 30.09 in    
Wind  
Wind Speed 7 mph (West)    
Max Wind Speed 13 mph    
Max Gust Speed 16 mph    
Visibility 8 miles    
Events Rain    
Averages and records for this station are not official NWS values.
T = Trace of Precipitation, MM = Missing Value Source: NWS Daily Summary

Daily Weather History Graph

Daily Weather History Graph

Search for Another Location

Airport:

Trip Planner

Search our weather history database for the weather conditions in past years. The results will help you decide how hot, cold, wet, or windy it might be!

Date:

Astronomy

Oct. 23, 2013 Rise Set
Actual Time 7:34 AM CDT 6:20 PM CDT
Civil Twilight 7:06 AM CDT 6:48 PM CDT
Nautical Twilight 6:33 AM CDT 7:20 PM CDT
Astronomical Twilight 6:02 AM CDT 7:52 PM CDT
Moon 9:51 PM CDT (10/23) 11:52 AM CDT (10/23)
Length of Visible Light 11h 42m
Length of Day
10h 46m
Waning Gibbous, 79% of the Moon is Illuminated
Oct 23
Waning Gibbous
Oct 26
Last Quarter
Nov 3
New
Nov 9
First Quarter
Nov 17
Full

Hourly Weather History & Observations

Time (CDT) Temp. Windchill Dew Point Humidity Pressure Visibility Wind Dir Wind Speed Gust Speed Precip Events Conditions
12:15 AM 37.4 °F 32.8 °F 32.0 °F 81% 30.06 in 10.0 mi NW 5.8 mph - N/A   Overcast
12:35 AM 37.4 °F 32.8 °F 32.0 °F 81% 30.06 in 10.0 mi NW 5.8 mph - N/A   Overcast
12:55 AM 37.4 °F 30.8 °F 30.2 °F 75% 30.07 in 10.0 mi NW 9.2 mph - N/A   Overcast
1:35 AM 37.4 °F 30.8 °F 28.4 °F 70% 30.07 in 10.0 mi NW 9.2 mph - N/A   Overcast
1:55 AM 35.6 °F 29.2 °F 28.4 °F 75% 30.07 in 10.0 mi NW 8.1 mph - N/A   Overcast
2:15 AM 35.6 °F 29.9 °F 28.4 °F 75% 30.06 in 10.0 mi NW 6.9 mph - N/A   Overcast
2:35 AM 35.6 °F 30.7 °F 28.4 °F 75% 30.06 in 10.0 mi NW 5.8 mph - N/A   Overcast
2:55 AM 35.6 °F 29.9 °F 28.4 °F 75% 30.06 in 10.0 mi WNW 6.9 mph - N/A   Overcast
3:15 AM 35.6 °F 29.9 °F 28.4 °F 75% 30.06 in 10.0 mi WNW 6.9 mph - N/A   Overcast
3:35 AM 33.8 °F 27.7 °F 26.6 °F 75% 30.06 in 10.0 mi WNW 6.9 mph - N/A   Overcast
3:55 AM 35.6 °F 29.9 °F 26.6 °F 70% 30.06 in 10.0 mi NW 6.9 mph - N/A   Overcast
4:15 AM 32.0 °F 25.6 °F 26.6 °F 80% 30.06 in 10.0 mi WNW 6.9 mph - N/A   Mostly Cloudy
4:35 AM 32.0 °F 25.6 °F 26.6 °F 80% 30.06 in 10.0 mi WNW 6.9 mph - N/A   Mostly Cloudy
4:55 AM 32.0 °F 25.6 °F 26.6 °F 80% 30.06 in 10.0 mi WNW 6.9 mph - N/A   Scattered Clouds
5:15 AM 30.2 °F 23.4 °F 26.6 °F 86% 30.07 in 10.0 mi WNW 6.9 mph - N/A   Scattered Clouds
5:35 AM 30.2 °F 23.4 °F 26.6 °F 86% 30.08 in 10.0 mi WNW 6.9 mph - N/A   Overcast
5:55 AM 32.0 °F 25.6 °F 28.4 °F 87% 30.08 in 10.0 mi West 6.9 mph - N/A   Overcast
6:15 AM 30.2 °F 22.6 °F 28.4 °F 93% 30.08 in 10.0 mi West 8.1 mph - N/A   Overcast
6:35 AM 30.2 °F 23.4 °F 28.4 °F 93% 30.09 in 10.0 mi West 6.9 mph - N/A   Overcast
6:55 AM 30.2 °F 23.4 °F 28.4 °F 93% 30.09 in 10.0 mi West 6.9 mph - N/A   Overcast
7:15 AM 30.2 °F 24.3 °F 28.4 °F 93% 30.09 in 10.0 mi West 5.8 mph - N/A   Overcast
7:35 AM 32.0 °F 25.6 °F 28.4 °F 87% 30.10 in 10.0 mi West 6.9 mph - N/A   Overcast
7:55 AM 32.0 °F 25.6 °F 28.4 °F 87% 30.10 in 10.0 mi West 6.9 mph - N/A   Overcast
8:15 AM 32.0 °F 26.4 °F 30.2 °F 93% 30.10 in 10.0 mi West 5.8 mph - N/A   Mostly Cloudy
8:35 AM 33.8 °F 28.6 °F 30.2 °F 87% 30.11 in 10.0 mi West 5.8 mph - N/A   Partly Cloudy
8:55 AM 35.6 °F 29.2 °F 30.2 °F 81% 30.12 in 10.0 mi West 8.1 mph - N/A   Partly Cloudy
9:15 AM 35.6 °F 29.9 °F 30.2 °F 81% 30.11 in 10.0 mi West 6.9 mph - N/A   Clear
9:35 AM 35.6 °F 30.7 °F 30.2 °F 81% 30.11 in 10.0 mi West 5.8 mph - N/A   Mostly Cloudy
9:55 AM 37.4 °F 32.8 °F 30.2 °F 75% 30.11 in 10.0 mi WSW 5.8 mph - N/A   Mostly Cloudy
10:15 AM 39.2 °F 34.2 °F 30.2 °F 70% 30.12 in 10.0 mi WSW 6.9 mph - N/A   Partly Cloudy
10:35 AM 41.0 °F 35.2 °F 30.2 °F 65% 30.13 in 10.0 mi West 9.2 mph - N/A   Clear
10:55 AM 41.0 °F 36.4 °F 30.2 °F 65% 30.12 in 10.0 mi WNW 6.9 mph - N/A   Clear
11:15 AM 42.8 °F 37.5 °F 28.4 °F 57% 30.12 in 10.0 mi WSW 9.2 mph - N/A   Partly Cloudy
11:35 AM 41.0 °F 35.8 °F 26.6 °F 57% 30.12 in 10.0 mi WNW 8.1 mph - N/A   Mostly Cloudy
11:55 AM 41.0 °F 35.2 °F 26.6 °F 57% 30.11 in 10.0 mi West 9.2 mph 16.1 mph N/A   Mostly Cloudy
12:15 PM 42.8 °F 38.6 °F 26.6 °F 53% 30.10 in 10.0 mi WSW 6.9 mph 12.7 mph N/A   Partly Cloudy
12:35 PM 41.0 °F 36.4 °F 28.4 °F 61% 30.10 in 9.0 mi West 6.9 mph - N/A   Mostly Cloudy
12:55 PM 41.0 °F 36.4 °F 30.2 °F 65% 30.08 in 8.0 mi South 6.9 mph 12.7 mph N/A   Mostly Cloudy
1:15 PM 41.0 °F 36.4 °F 32.0 °F 70% 30.09 in 9.0 mi West 6.9 mph - N/A   Light Drizzle
1:35 PM 39.2 °F 34.2 °F 33.8 °F 81% 30.08 in 8.0 mi WSW 6.9 mph 12.7 mph N/A   Light Drizzle
1:55 PM 39.2 °F 31.6 °F 33.8 °F 81% 30.08 in 6.0 mi WSW 12.7 mph - N/A   Light Drizzle
2:15 PM 37.4 °F 31.4 °F 35.6 °F 93% 30.07 in 3.0 mi West 8.1 mph - N/A Rain Light Rain
2:35 PM 37.4 °F 32.8 °F 35.6 °F 93% 30.07 in 7.0 mi West 5.8 mph - N/A   Light Drizzle
2:55 PM 37.4 °F 31.4 °F 35.6 °F 93% 30.06 in 7.0 mi West 8.1 mph - N/A   Light Drizzle
3:15 PM 37.4 °F 30.8 °F 35.6 °F 93% 30.07 in 7.0 mi West 9.2 mph - N/A Rain Light Rain
3:35 PM 37.4 °F 32.1 °F 35.6 °F 93% 30.08 in 5.0 mi West 6.9 mph - N/A Rain Light Rain
3:55 PM 37.4 °F 31.4 °F 35.6 °F 93% 30.09 in 5.0 mi West 8.1 mph - 0.01 in Rain Light Rain
4:15 PM 37.4 °F 32.1 °F 35.6 °F 93% 30.09 in 6.0 mi West 6.9 mph - N/A Rain Light Rain
4:35 PM 37.4 °F 32.8 °F 35.6 °F 93% 30.09 in 7.0 mi WSW 5.8 mph - N/A Rain Light Rain
4:55 PM 37.4 °F 32.8 °F 35.6 °F 93% 30.09 in 7.0 mi WSW 5.8 mph - 0.01 in Rain Light Rain
5:15 PM 37.4 °F 32.8 °F 35.6 °F 93% 30.09 in 6.0 mi West 5.8 mph - N/A Rain Light Rain
5:35 PM 37.4 °F 32.1 °F 35.6 °F 93% 30.09 in 6.0 mi West 6.9 mph - N/A   Light Drizzle
5:55 PM 37.4 °F 31.4 °F 35.6 °F 93% 30.09 in 3.0 mi West 8.1 mph - N/A   Overcast
6:15 PM 37.4 °F 33.8 °F 35.6 °F 93% 30.09 in 6.0 mi WSW 4.6 mph - N/A   Overcast
6:35 PM 37.4 °F 33.8 °F 35.6 °F 93% 30.09 in 6.0 mi West 4.6 mph - N/A   Overcast
6:55 PM 37.4 °F 32.1 °F 35.6 °F 93% 30.10 in 8.0 mi West 6.9 mph - N/A   Overcast
7:15 PM 37.4 °F 33.8 °F 35.6 °F 93% 30.10 in 7.0 mi West 4.6 mph - N/A   Overcast
7:35 PM 37.4 °F - 35.6 °F 93% 30.11 in 7.0 mi Calm Calm - N/A   Overcast
7:55 PM 37.4 °F - 35.6 °F 93% 30.11 in 6.0 mi Calm Calm - N/A   Overcast
8:15 PM 37.4 °F - 35.6 °F 93% 30.11 in 6.0 mi Calm Calm - N/A   Overcast
8:35 PM 37.4 °F 33.8 °F 35.6 °F 93% 30.11 in 5.0 mi West 4.6 mph - N/A   Overcast
8:55 PM 37.4 °F 33.8 °F 35.6 °F 93% 30.11 in 4.0 mi West 4.6 mph - N/A   Overcast
9:15 PM 37.4 °F 32.1 °F 35.6 °F 93% 30.12 in 4.0 mi WNW 6.9 mph - N/A   Overcast
9:35 PM 37.4 °F 32.1 °F 35.6 °F 93% 30.12 in 5.0 mi WNW 6.9 mph - N/A   Overcast
9:55 PM 37.4 °F 29.8 °F 37.4 °F 100% 30.13 in 5.0 mi WNW 11.5 mph - N/A   Mostly Cloudy
10:15 PM 37.4 °F 30.8 °F 35.6 °F 93% 30.13 in 7.0 mi WNW 9.2 mph - N/A   Overcast
10:35 PM 37.4 °F 30.8 °F 35.6 °F 93% 30.13 in 7.0 mi NW 9.2 mph - N/A   Overcast
10:55 PM 37.4 °F 31.4 °F 35.6 °F 93% 30.14 in 9.0 mi NW 8.1 mph 13.8 mph N/A   Overcast
11:15 PM 37.4 °F 30.8 °F 35.6 °F 93% 30.14 in 10.0 mi NW 9.2 mph - N/A   Overcast
11:35 PM 37.4 °F 31.4 °F 35.6 °F 93% 30.15 in 10.0 mi NW 8.1 mph - N/A   Overcast
11:55 PM 37.4 °F 32.1 °F 35.6 °F 93% 30.15 in 10.0 mi NW 6.9 mph - N/A   Overcast